Regional Weather Roundup
Issued by NWS

Home | Current Version | Previous Version | Graphics & Text | Print | Product List | Glossary On
Versions: 1 2 3 4 5 6 7 8 9 10 11 12 13 14 15 16 17 18 19 20 21 22 23 24 25 26 27 28 29 30 31 32 33 34 35 36 37 38 39 40 41 42 43 44 45 46 47 48 49 50
000
ASUS43 KFSD 280602
RWRSD

WEATHER ROUNDUP FOR SOUTH DAKOTA
NATIONAL WEATHER SERVICE SIOUX FALLS SD
100 AM CDT THU AUG 28 2014

NOTE: "FAIR" INDICATES FEW OR NO CLOUDS BELOW 12,000 FEET WITH NO
SIGNIFICANT WEATHER AND/OR OBSTRUCTIONS TO VISIBILITY.


SDZ001>005-009-010-012>017-280700-
NORTHWEST AND NORTH CENTRAL SOUTH DAKOTA

CITY           SKY/WX    TMP DP  RH WIND       PRES   REMARKS
BUFFALO          N/A     60  59  96 SW6       29.98F
FAITH            N/A     64  64 100 NE7       30.02F
MOBRIDGE       CLOUDY    66  64  93 SE7       29.99F
$$

SDZ012>016-024>037-041>051-057-063-072>074-280700-
SOUTHWEST AND SOUTH CENTRAL SOUTH DAKOTA

CITY           SKY/WX    TMP DP  RH WIND       PRES   REMARKS
RAPID CTY ARPT CLOUDY    64  62  93 N6        30.05R
PIERRE         LGT RAIN  67  67 100 SE6       29.99F
CUSTER         CLOUDY    58  55  90 N3        30.15S
ELLSWORTH AFB  CLOUDY    64  62  91 N5        30.04S
PHILIP         LGT RAIN  66  64  93 CALM      29.99F
PINE RIDGE     LGT RAIN  64  63  96 W7        30.02F
WINNER         LGT RAIN  68  67  96 E10       30.00S
$$

SDZ004>011-016>023-039-040-280700-
NORTHEAST SOUTH DAKOTA

CITY           SKY/WX    TMP DP  RH WIND       PRES   REMARKS
ABERDEEN       PTCLDY    61  61 100 SE3       30.03S
WATERTOWN      FAIR      64  62  93 SE8       30.06F
SISSETON         N/A     63  61  93 S6        30.05F
$$

SDZ017-020-022-023-036>040-048>070-280700-
SOUTHEAST SOUTH DAKOTA

CITY           SKY/WX    TMP DP  RH WIND       PRES   REMARKS
SIOUX FALLS    MOCLDY    69  65  86 SE10      30.06F
HURON          CLOUDY    67  64  90 SE7       30.02F
CHAMBERLAIN    LGT RAIN  66  66  99 SE9       30.02S
MITCHELL       CLOUDY    69  67  93 SE9       30.02F
YANKTON        CLOUDY    68  66  94 E7        30.03F
$$

ABBREVIATIONS USED IN REMARKS
   TC - TEMPERATURE IN CELSIUS
  WCI - WIND CHILL INDEX
   HX - HEAT INDEX
  VSB - VISIBILITY




USA.gov is the U.S. government's official web portal to all federal, state and local government web resources and services.